(55) Pandora
ephemeris date magn radius delta ra dec elong phase
Today16 Jun 202613.33.135 AU2.647 AU12h46m-08°24'109.4°17.8°
Opposition5 Jul 202711.52.712 AU1.708 AU19h05m-34°04'168.5°4.3°
(55) Pandora - 2026-06-16
astro.vanbuitenen.nl


 
-1 year
-1 month
-1 day
Now
+1 day
+1 month
+1 year

The interactive orbit chart above shows the body's path through the solar system and its position at the given date. Green and blue lines are shown perpendicular to the ecliptic plane: Green if the path is above the ecliptic plane, blue if it is below. (Left-click and drag to rotate the view; Right-click and drag to move the view; Use scroll wheel to zoom in our out.)

The orbital elements of Pandora are:

            e (Eccentricity)                : 0.1449760
            a (Semimajor axis)              : 2.7580540
            i (Inclination)                 : 7.17612
            Ω (Longitude of ascending node) : 10.28342
            ω (Argument of perihelion)      : 4.89075
            M (Mean anomaly)                : 200.62853
            Epoch                           : 2026 Jun 09

            L (Longitude of perihelion)     : 15.13604
            B (Latitude of perihelion)      : 0.61022
            P (Orbital period in years)     : 4.58            
        

The light curve chart below shows the estimated development of the minor planet's magnitude.


The all-sky chart below shows the path of the minor planet over the same period as the light curve. The current position is marked yellow.





The following chart shows the path of the minor planet in the next few days. The field of view is optimized for (~10x50) binoculars and finderscopes.




Ephemerides:
Date       Time       RA (2000)    DEC (2000)    delta   radius  elong  phase   PA    magn
2026-06-16 00:00 UT   12 46 37.4   -08 24 31     2.647    3.135  109.4   17.8   112   13.3 
2026-06-16 05:06 UT   12 46 40.0   -08 24 54     2.650    3.135  109.3   17.8   112   13.3 
2026-06-17 00:00 UT   12 46 50.1   -08 26 19     2.660    3.135  108.6   17.9   112   13.4 
2026-06-18 00:00 UT   12 47 04.0   -08 28 13     2.673    3.134  107.7   18.0   112   13.4 
2026-06-19 00:00 UT   12 47 19.0   -08 30 13     2.686    3.134  106.8   18.1   112   13.4 
2026-06-20 00:00 UT   12 47 35.1   -08 32 20     2.699    3.133  105.9   18.2   112   13.4 
2026-06-21 00:00 UT   12 47 52.3   -08 34 33     2.712    3.133  105.0   18.3   112   13.4 
2026-06-22 00:00 UT   12 48 10.7   -08 36 52     2.725    3.133  104.2   18.3   112   13.4 
2026-06-23 00:00 UT   12 48 30.1   -08 39 18     2.738    3.132  103.3   18.4   112   13.4 
2026-06-24 00:00 UT   12 48 50.7   -08 41 50     2.751    3.132  102.4   18.5   112   13.4 
2026-06-25 00:00 UT   12 49 12.2   -08 44 28     2.765    3.131  101.6   18.5   112   13.5 
2026-06-26 00:00 UT   12 49 34.9   -08 47 12     2.778    3.131  100.7   18.6   112   13.5 
2026-06-27 00:00 UT   12 49 58.6   -08 50 02     2.791    3.130   99.9   18.7   112   13.5 
2026-06-28 00:00 UT   12 50 23.3   -08 52 57     2.804    3.130   99.1   18.7   112   13.5 
2026-06-29 00:00 UT   12 50 49.0   -08 55 59     2.818    3.129   98.2   18.8   112   13.5 
2026-06-30 00:00 UT   12 51 15.7   -08 59 06     2.831    3.129   97.4   18.8   112   13.5 
2026-07-01 00:00 UT   12 51 43.4   -09 02 19     2.845    3.128   96.6   18.8   112   13.5 
2026-07-02 00:00 UT   12 52 12.1   -09 05 38     2.858    3.128   95.7   18.9   113   13.5 
2026-07-03 00:00 UT   12 52 41.8   -09 09 02     2.871    3.127   94.9   18.9   113   13.6 
2026-07-04 00:00 UT   12 53 12.4   -09 12 31     2.885    3.127   94.1   18.9   113   13.6 
2026-07-05 00:00 UT   12 53 44.0   -09 16 06     2.898    3.126   93.3   18.9   113   13.6 
2026-07-06 00:00 UT   12 54 16.4   -09 19 46     2.912    3.126   92.5   19.0   113   13.6 
2026-07-07 00:00 UT   12 54 49.9   -09 23 32     2.925    3.125   91.7   19.0   113   13.6 
2026-07-08 00:00 UT   12 55 24.2   -09 27 22     2.939    3.125   90.9   19.0   113   13.6 
2026-07-09 00:00 UT   12 55 59.4   -09 31 18     2.952    3.124   90.1   19.0   113   13.6 
2026-07-10 00:00 UT   12 56 35.6   -09 35 19     2.966    3.124   89.3   19.0   113   13.6 
2026-07-11 00:00 UT   12 57 12.6   -09 39 25     2.979    3.123   88.5   19.0   113   13.6 
2026-07-12 00:00 UT   12 57 50.5   -09 43 36     2.993    3.122   87.7   19.0   113   13.6 
2026-07-13 00:00 UT   12 58 29.2   -09 47 51     3.006    3.122   87.0   19.0   113   13.6 
2026-07-14 00:00 UT   12 59 08.8   -09 52 12     3.019    3.121   86.2   19.0   113   13.7 
2026-07-15 00:00 UT   12 59 49.3   -09 56 37     3.033    3.121   85.4   18.9   113   13.7 
2026-07-16 00:00 UT   13 00 30.6   -10 01 07     3.046    3.120   84.7   18.9   113   13.7 


    Terminology:
            
    delta:  distance between minor planet and earth in AU
    radius: distance between minor planet and sun in AU
    magn:   magnitude (brightness) estimate    
    ra:     right ascension in hours (24h = 360deg)
    dec:    declination in degrees
    elong:  elongation in degrees (angle sun-earth-minor planet)    
    phase:  phase angle in degrees (angle sun-minor planet-earth)        
    AU:     Astronomical Unit (mean distance between earth and sun: 149597870.7 km
    

Orbital elements provided by the MPC (Minor Planet Center).
Calculations by a modified version of AAPlus, a C# implementation of the AA+ project by PJ Naughter from the algorithms presented in the book "Astronomical Algorithms" by Jean Meeus.
NGC2000 dso catalog and star labels from VizieR as provided by the Strasbourg astronomical Data Center.
Tycho2 catalog from the ESO archive.